Time,TemperatureF,DewpointF,PressureIn,WindDirection,WindDirectionDegrees,WindSpeedMPH,WindSpeedGustMPH,Humidity,HourlyPrecipIn,Conditions,Clouds,dailyrainin,SoftwareType,DateUTC
2013-05-08 00:00:00,55.8,49.0,29.94,SSW,202,2.7,3.6,78,0.00,,,0.00,VWS V14.01,2013-05-08 07:00:00,
2013-05-08 00:05:00,55.6,48.5,29.94,NE,45,0.0,6.3,77,0.00,,,0.00,VWS V14.01,2013-05-08 07:05:00,
2013-05-08 00:10:00,55.6,48.5,29.94,South,180,3.6,4.9,77,0.00,,,0.00,VWS V14.01,2013-05-08 07:10:00,
2013-05-08 00:16:00,55.6,48.5,29.94,SSE,158,2.2,3.1,77,0.00,,,0.00,VWS V14.01,2013-05-08 07:16:00,
2013-05-08 00:21:00,55.4,48.3,29.94,SSW,202,0.0,3.1,77,0.00,,,0.00,VWS V14.01,2013-05-08 07:21:00,
2013-05-08 00:26:00,55.6,48.5,29.94,WSW,248,0.0,0.0,77,0.00,,,0.00,VWS V14.01,2013-05-08 07:26:00,
2013-05-08 00:31:00,55.6,48.5,29.94,SSW,202,6.3,7.6,77,0.00,,,0.00,VWS V14.01,2013-05-08 07:31:00,
2013-05-08 00:36:00,55.4,48.3,29.94,WNW,292,2.7,3.6,77,0.00,,,0.00,VWS V14.01,2013-05-08 07:36:00,
2013-05-08 00:41:00,55.6,48.8,29.94,South,180,2.7,2.7,78,0.00,,,0.00,VWS V14.01,2013-05-08 07:41:00,
2013-05-08 00:47:00,55.6,48.8,29.94,SSE,158,3.1,3.1,78,0.00,,,0.00,VWS V14.01,2013-05-08 07:47:00,
2013-05-08 00:52:00,55.6,48.8,29.94,West,270,3.1,4.9,78,0.00,,,0.00,VWS V14.01,2013-05-08 07:52:00,
2013-05-08 00:57:00,55.4,48.3,29.94,South,180,3.6,4.9,77,0.00,,,0.00,VWS V14.01,2013-05-08 07:57:00,
2013-05-08 01:02:00,55.2,48.2,29.94,WSW,248,3.6,3.6,77,0.00,,,0.00,VWS V14.01,2013-05-08 08:02:00,
2013-05-08 01:07:00,55.2,48.2,29.94,SSE,158,3.6,5.4,77,0.00,,,0.00,VWS V14.01,2013-05-08 08:07:00,
2013-05-08 01:12:00,55.0,48.0,29.94,SSE,158,3.6,6.3,77,0.00,,,0.00,VWS V14.01,2013-05-08 08:12:00,
2013-05-08 01:17:00,55.0,48.0,29.94,SSW,202,3.6,3.6,77,0.00,,,0.00,VWS V14.01,2013-05-08 08:17:00,
2013-05-08 01:23:00,54.9,47.8,29.94,WNW,292,3.1,3.1,77,0.00,,,0.00,VWS V14.01,2013-05-08 08:23:00,
2013-05-08 01:28:00,54.7,48.0,29.94,NE,45,0.0,4.9,78,0.00,,,0.00,VWS V14.01,2013-05-08 08:28:00,
2013-05-08 01:33:00,54.9,48.1,29.94,WSW,248,3.1,3.1,78,0.00,,,0.00,VWS V14.01,2013-05-08 08:33:00,
2013-05-08 01:38:00,54.9,48.1,29.94,SSW,202,2.7,3.1,78,0.00,,,0.00,VWS V14.01,2013-05-08 08:38:00,
2013-05-08 01:43:00,54.9,48.1,29.94,SW,225,2.7,3.1,78,0.00,,,0.00,VWS V14.01,2013-05-08 08:43:00,
2013-05-08 01:49:00,54.7,48.3,29.94,SSW,202,3.6,3.6,79,0.00,,,0.00,VWS V14.01,2013-05-08 08:49:00,
2013-05-08 01:54:00,54.5,48.1,29.94,South,180,7.6,7.6,79,0.00,,,0.00,VWS V14.01,2013-05-08 08:54:00,
2013-05-08 01:59:00,54.3,48.0,29.94,SSE,158,3.1,3.1,79,0.00,,,0.00,VWS V14.01,2013-05-08 08:59:00,
2013-05-08 02:04:00,54.5,48.1,29.94,ESE,112,0.0,3.1,79,0.00,,,0.00,VWS V14.01,2013-05-08 09:04:00,
2013-05-08 02:09:00,54.5,48.5,29.94,NNE,22,0.0,3.1,80,0.00,,,0.00,VWS V14.01,2013-05-08 09:09:00,
2013-05-08 02:14:00,54.5,48.5,29.94,SSE,158,4.9,4.9,80,0.00,,,0.00,VWS V14.01,2013-05-08 09:14:00,
2013-05-08 02:19:00,54.3,48.3,29.94,SSW,202,0.0,0.0,80,0.00,,,0.00,VWS V14.01,2013-05-08 09:19:00,
2013-05-08 02:24:00,54.1,48.1,29.94,SSE,158,0.0,0.0,80,0.00,,,0.00,VWS V14.01,2013-05-08 09:24:00,
2013-05-08 02:30:00,54.1,48.1,29.94,WNW,292,0.0,0.0,80,0.00,,,0.00,VWS V14.01,2013-05-08 09:30:00,
2013-05-08 02:35:00,54.1,48.1,29.94,NE,45,2.2,3.6,80,0.00,,,0.00,VWS V14.01,2013-05-08 09:35:00,
2013-05-08 02:40:00,54.1,48.1,29.94,WSW,248,2.7,3.6,80,0.00,,,0.00,VWS V14.01,2013-05-08 09:40:00,
2013-05-08 02:45:00,54.1,48.5,29.94,WSW,248,0.0,2.2,81,0.00,,,0.00,VWS V14.01,2013-05-08 09:45:00,
2013-05-08 02:50:00,54.1,48.5,29.94,South,180,0.0,3.6,81,0.00,,,0.00,VWS V14.01,2013-05-08 09:50:00,
2013-05-08 02:55:00,54.1,48.5,29.94,SSW,202,0.0,4.0,81,0.00,,,0.00,VWS V14.01,2013-05-08 09:55:00,
2013-05-08 03:00:00,54.1,48.5,29.94,ENE,68,2.2,2.7,81,0.00,,,0.00,VWS V14.01,2013-05-08 10:00:00,
2013-05-08 03:05:00,54.1,48.5,29.94,SSE,158,2.7,2.7,81,0.00,,,0.00,VWS V14.01,2013-05-08 10:05:00,
2013-05-08 03:10:00,54.1,48.5,29.94,SSW,202,0.0,2.7,81,0.00,,,0.00,VWS V14.01,2013-05-08 10:10:00,
2013-05-08 03:15:00,54.1,48.1,29.94,SSE,158,3.6,3.6,80,0.00,,,0.00,VWS V14.01,2013-05-08 10:15:00,
2013-05-08 03:20:00,53.8,47.8,29.94,ESE,112,2.7,5.4,80,0.00,,,0.00,VWS V14.01,2013-05-08 10:20:00,
2013-05-08 03:25:00,53.8,47.8,29.94,SSE,158,2.7,3.6,80,0.00,,,0.00,VWS V14.01,2013-05-08 10:25:00,
2013-05-08 03:30:00,53.8,47.8,29.94,NW,315,2.2,3.1,80,0.00,,,0.00,VWS V14.01,2013-05-08 10:30:00,
2013-05-08 03:35:00,53.8,47.8,29.94,South,180,3.1,3.1,80,0.00,,,0.00,VWS V14.01,2013-05-08 10:35:00,
2013-05-08 03:41:00,53.8,47.8,29.97,SW,225,4.0,4.9,80,0.00,,,0.00,VWS V14.01,2013-05-08 10:41:00,
2013-05-08 03:46:00,54.0,47.9,29.97,SSW,202,0.0,0.0,80,0.00,,,0.00,VWS V14.01,2013-05-08 10:46:00,
2013-05-08 03:51:00,54.0,47.9,29.97,SW,225,0.0,0.0,80,0.00,,,0.00,VWS V14.01,2013-05-08 10:51:00,
2013-05-08 03:56:00,53.8,47.4,29.97,SSW,202,4.0,4.0,79,0.00,,,0.00,VWS V14.01,2013-05-08 10:56:00,
2013-05-08 04:01:00,54.0,47.6,29.97,SSE,158,0.0,2.7,79,0.00,,,0.00,VWS V14.01,2013-05-08 11:01:00,
2013-05-08 04:06:00,54.0,47.3,29.97,SW,225,3.1,3.1,78,0.00,,,0.00,VWS V14.01,2013-05-08 11:06:00,
2013-05-08 04:11:00,54.0,47.3,29.94,SSW,202,3.1,4.0,78,0.00,,,0.00,VWS V14.01,2013-05-08 11:11:00,
2013-05-08 04:16:00,54.1,47.4,29.94,SSE,158,4.9,4.9,78,0.00,,,0.00,VWS V14.01,2013-05-08 11:16:00,
2013-05-08 04:21:00,54.0,46.9,29.94,South,180,3.1,6.3,77,0.00,,,0.00,VWS V14.01,2013-05-08 11:21:00,
2013-05-08 04:27:00,54.0,46.9,29.94,SSW,202,2.2,2.2,77,0.00,,,0.00,VWS V14.01,2013-05-08 11:27:00,
2013-05-08 04:33:00,54.1,47.1,29.94,SSE,158,0.0,0.0,77,0.00,,,0.00,VWS V14.01,2013-05-08 11:33:00,
2013-05-08 04:38:00,54.3,47.3,29.94,ENE,68,2.7,3.1,77,0.00,,,0.00,VWS V14.01,2013-05-08 11:38:00,
2013-05-08 04:43:00,54.3,46.9,29.94,NNE,22,3.1,3.1,76,0.00,,,0.00,VWS V14.01,2013-05-08 11:43:00,
2013-05-08 04:48:00,54.5,47.1,29.94,East,90,2.2,4.9,76,0.00,,,0.00,VWS V14.01,2013-05-08 11:48:00,
2013-05-08 04:53:00,54.7,47.3,29.94,South,180,3.6,3.6,76,0.00,,,0.00,VWS V14.01,2013-05-08 11:53:00,
2013-05-08 04:59:00,54.5,46.8,29.94,SE,135,0.0,0.0,75,0.00,,,0.00,VWS V14.01,2013-05-08 11:59:00,
2013-05-08 05:04:00,54.5,46.8,29.94,South,180,2.7,2.7,75,0.00,,,0.00,VWS V14.01,2013-05-08 12:04:00,
2013-05-08 05:09:00,54.3,46.6,29.97,ESE,112,3.6,3.6,75,0.00,,,0.00,VWS V14.01,2013-05-08 12:09:00,
2013-05-08 05:14:00,54.5,46.8,29.97,ENE,68,0.0,3.6,75,0.00,,,0.00,VWS V14.01,2013-05-08 12:14:00,
2013-05-08 05:19:00,54.5,46.8,29.97,SSE,158,2.2,2.2,75,0.00,,,0.00,VWS V14.01,2013-05-08 12:19:00,
2013-05-08 05:25:00,54.5,46.4,29.97,SSW,202,6.3,6.3,74,0.00,,,0.00,VWS V14.01,2013-05-08 12:25:00,
2013-05-08 05:30:00,54.5,46.4,29.97,SSW,202,2.7,3.1,74,0.00,,,0.00,VWS V14.01,2013-05-08 12:30:00,
2013-05-08 05:35:00,54.5,46.4,29.97,WSW,248,3.6,3.6,74,0.00,,,0.00,VWS V14.01,2013-05-08 12:35:00,
2013-05-08 05:40:00,54.5,46.4,29.97,SSW,202,0.0,2.7,74,0.00,,,0.00,VWS V14.01,2013-05-08 12:40:00,
2013-05-08 05:45:00,54.5,46.4,29.97,WSW,248,2.7,2.7,74,0.00,,,0.00,VWS V14.01,2013-05-08 12:45:00,
2013-05-08 05:50:00,54.5,46.4,29.97,South,180,2.2,2.7,74,0.00,,,0.00,VWS V14.01,2013-05-08 12:50:00,
2013-05-08 05:55:00,54.7,46.2,29.97,South,180,3.1,3.1,73,0.00,,,0.00,VWS V14.01,2013-05-08 12:55:00,
2013-05-08 06:00:00,54.7,46.2,29.97,ESE,112,2.7,2.7,73,0.00,,,0.00,VWS V14.01,2013-05-08 13:00:00,
2013-05-08 06:06:00,54.7,46.2,29.97,SSW,202,2.2,3.1,73,0.00,,,0.00,VWS V14.01,2013-05-08 13:06:00,
2013-05-08 06:11:00,54.7,46.2,29.97,SSW,202,0.0,0.0,73,0.00,,,0.00,VWS V14.01,2013-05-08 13:11:00,
2013-05-08 06:16:00,54.9,46.0,29.97,SSW,202,2.7,4.0,72,0.00,,,0.00,VWS V14.01,2013-05-08 13:16:00,
2013-05-08 06:21:00,55.0,46.2,29.97,SSW,202,2.2,3.1,72,0.00,,,0.00,VWS V14.01,2013-05-08 13:21:00,
2013-05-08 06:26:00,55.0,46.2,29.97,SE,135,2.7,4.5,72,0.00,,,0.00,VWS V14.01,2013-05-08 13:26:00,
2013-05-08 06:32:00,55.0,46.2,29.97,WNW,292,0.0,3.6,72,0.00,,,0.00,VWS V14.01,2013-05-08 13:32:00,
2013-05-08 06:37:00,55.0,46.2,29.97,South,180,5.4,5.4,72,0.00,,,0.00,VWS V14.01,2013-05-08 13:37:00,
2013-05-08 06:42:00,55.0,46.2,29.97,South,180,6.3,6.3,72,0.00,,,0.00,VWS V14.01,2013-05-08 13:42:00,
2013-05-08 06:47:00,55.0,46.2,29.97,West,270,0.0,0.0,72,0.00,,,0.00,VWS V14.01,2013-05-08 13:47:00,
2013-05-08 06:52:00,55.0,46.2,29.97,SSW,202,2.2,2.2,72,0.00,,,0.00,VWS V14.01,2013-05-08 13:52:00,
2013-05-08 06:58:00,55.0,46.2,29.97,South,180,3.6,4.5,72,0.00,,,0.00,VWS V14.01,2013-05-08 13:58:00,
2013-05-08 07:03:00,55.0,46.2,29.97,South,180,5.4,7.2,72,0.00,,,0.00,VWS V14.01,2013-05-08 14:03:00,
2013-05-08 07:08:00,55.0,46.2,29.97,SSW,202,2.2,3.6,72,0.00,,,0.00,VWS V14.01,2013-05-08 14:08:00,
2013-05-08 07:13:00,55.0,46.2,30.00,SE,135,0.0,2.2,72,0.00,,,0.00,VWS V14.01,2013-05-08 14:13:00,
2013-05-08 07:18:00,55.4,46.2,30.00,SSE,158,3.6,3.6,71,0.00,,,0.00,VWS V14.01,2013-05-08 14:18:00,
2013-05-08 07:23:00,55.4,46.2,30.00,ENE,68,2.2,2.2,71,0.00,,,0.00,VWS V14.01,2013-05-08 14:23:00,
2013-05-08 07:28:00,55.4,46.2,30.00,North,0,0.0,2.7,71,0.00,,,0.00,VWS V14.01,2013-05-08 14:28:00,
2013-05-08 07:33:00,55.6,46.3,30.00,ENE,68,0.0,0.0,71,0.00,,,0.00,VWS V14.01,2013-05-08 14:33:00,
2013-05-08 07:39:00,55.4,45.8,30.00,SSW,202,0.0,2.2,70,0.00,,,0.00,VWS V14.01,2013-05-08 14:39:00,
2013-05-08 07:44:00,55.4,45.8,30.00,SW,225,0.0,4.0,70,0.00,,,0.00,VWS V14.01,2013-05-08 14:44:00,
2013-05-08 07:49:00,55.2,45.6,30.00,SSE,158,3.1,7.2,70,0.00,,,0.00,VWS V14.01,2013-05-08 14:49:00,
2013-05-08 07:54:00,55.2,45.6,30.00,SSW,202,4.0,5.8,70,0.00,,,0.00,VWS V14.01,2013-05-08 14:54:00,
2013-05-08 08:00:00,55.2,45.6,30.00,ENE,68,0.0,0.0,70,0.00,,,0.00,VWS V14.01,2013-05-08 15:00:00,
2013-05-08 08:05:00,55.4,45.8,30.00,NE,45,0.0,0.0,70,0.00,,,0.00,VWS V14.01,2013-05-08 15:05:00,
2013-05-08 08:10:00,55.8,46.1,30.00,East,90,2.7,3.6,70,0.00,,,0.00,VWS V14.01,2013-05-08 15:10:00,
2013-05-08 08:15:00,55.8,45.8,30.00,WSW,248,3.6,4.0,69,0.00,,,0.00,VWS V14.01,2013-05-08 15:15:00,
2013-05-08 08:21:00,55.6,45.6,30.00,North,0,3.1,3.6,69,0.00,,,0.00,VWS V14.01,2013-05-08 15:21:00,
2013-05-08 08:26:00,55.6,45.6,30.00,SSE,158,2.7,2.7,69,0.00,,,0.00,VWS V14.01,2013-05-08 15:26:00,
2013-05-08 08:31:00,55.6,45.6,30.00,South,180,2.7,3.6,69,0.00,,,0.00,VWS V14.01,2013-05-08 15:31:00,
2013-05-08 08:36:00,55.9,45.9,30.00,ENE,68,4.0,4.0,69,0.00,,,0.00,VWS V14.01,2013-05-08 15:36:00,
2013-05-08 08:41:00,56.3,46.3,30.00,South,180,3.6,3.6,69,0.00,,,0.00,VWS V14.01,2013-05-08 15:41:00,
2013-05-08 08:47:00,56.3,45.9,30.00,SSW,202,2.2,5.4,68,0.00,,,0.00,VWS V14.01,2013-05-08 15:47:00,
2013-05-08 08:52:00,56.3,45.5,30.00,SSE,158,4.5,4.5,67,0.00,,,0.00,VWS V14.01,2013-05-08 15:52:00,
2013-05-08 08:57:00,56.5,45.3,30.00,SSW,202,3.6,3.6,66,0.00,,,0.00,VWS V14.01,2013-05-08 15:57:00,
2013-05-08 09:02:00,56.3,45.1,30.00,NNE,22,4.0,4.0,66,0.00,,,0.00,VWS V14.01,2013-05-08 16:02:00,
2013-05-08 09:07:00,56.3,45.1,30.00,SSE,158,8.3,9.2,66,0.00,,,0.00,VWS V14.01,2013-05-08 16:07:00,
2013-05-08 09:12:00,56.3,45.1,30.00,South,180,2.2,4.0,66,0.00,,,0.00,VWS V14.01,2013-05-08 16:12:00,
2013-05-08 09:17:00,56.5,45.3,30.00,SW,225,2.2,5.4,66,0.00,,,0.00,VWS V14.01,2013-05-08 16:17:00,
2013-05-08 09:22:00,56.5,45.3,30.00,SSE,158,0.0,2.7,66,0.00,,,0.00,VWS V14.01,2013-05-08 16:22:00,
2013-05-08 09:27:00,56.7,45.4,30.00,NE,45,0.0,0.0,66,0.00,,,0.00,VWS V14.01,2013-05-08 16:27:00,
2013-05-08 09:33:00,56.7,45.0,30.00,ENE,68,4.0,4.0,65,0.00,,,0.00,VWS V14.01,2013-05-08 16:33:00,
2013-05-08 09:38:00,56.7,45.0,30.00,South,180,4.0,4.0,65,0.00,,,0.00,VWS V14.01,2013-05-08 16:38:00,
2013-05-08 09:43:00,56.7,45.0,30.03,South,180,2.7,8.3,65,0.00,,,0.00,VWS V14.01,2013-05-08 16:43:00,
2013-05-08 09:48:00,56.7,45.0,30.03,South,180,3.1,3.6,65,0.00,,,0.00,VWS V14.01,2013-05-08 16:48:00,
2013-05-08 09:53:00,56.7,45.0,30.03,SW,225,5.4,5.4,65,0.00,,,0.00,VWS V14.01,2013-05-08 16:53:00,
2013-05-08 09:58:00,56.7,45.0,30.03,South,180,0.0,3.1,65,0.00,,,0.00,VWS V14.01,2013-05-08 16:58:00,
2013-05-08 10:04:00,56.8,45.2,30.03,ENE,68,0.0,0.0,65,0.00,,,0.00,VWS V14.01,2013-05-08 17:04:00,
2013-05-08 10:09:00,56.7,45.0,30.03,SSW,202,3.6,5.4,65,0.00,,,0.00,VWS V14.01,2013-05-08 17:09:00,
2013-05-08 10:14:00,56.3,44.7,30.03,SSW,202,3.6,4.5,65,0.00,,,0.00,VWS V14.01,2013-05-08 17:14:00,
2013-05-08 10:19:00,56.3,45.1,30.03,SSW,202,3.1,3.1,66,0.00,,,0.00,VWS V14.01,2013-05-08 17:19:00,
2013-05-08 10:24:00,56.7,45.8,30.03,SSW,202,3.1,6.3,67,0.00,,,0.00,VWS V14.01,2013-05-08 17:24:00,
2013-05-08 10:29:00,56.8,45.6,30.03,NW,315,3.1,3.6,66,0.00,,,0.00,VWS V14.01,2013-05-08 17:29:00,
2013-05-08 10:34:00,56.7,45.4,30.03,West,270,4.0,4.9,66,0.00,,,0.00,VWS V14.01,2013-05-08 17:34:00,
2013-05-08 10:40:00,56.8,45.6,30.03,ESE,112,0.0,0.0,66,0.00,,,0.00,VWS V14.01,2013-05-08 17:40:00,
2013-05-08 10:45:00,56.8,45.6,30.03,SSW,202,0.0,2.2,66,0.00,,,0.00,VWS V14.01,2013-05-08 17:45:00,
2013-05-08 10:50:00,56.8,46.0,30.03,NNW,338,3.1,3.6,67,0.00,,,0.00,VWS V14.01,2013-05-08 17:50:00,
2013-05-08 10:55:00,56.7,46.2,30.03,ENE,68,4.0,4.0,68,0.00,,,0.00,VWS V14.01,2013-05-08 17:55:00,
2013-05-08 11:01:00,57.0,46.2,30.03,SE,135,0.0,2.2,67,0.00,,,0.00,VWS V14.01,2013-05-08 18:01:00,
2013-05-08 11:06:00,57.2,46.0,30.03,SSE,158,3.1,3.6,66,0.00,,,0.00,VWS V14.01,2013-05-08 18:06:00,
2013-05-08 11:11:00,57.4,45.7,30.03,ENE,68,0.0,2.2,65,0.00,,,0.00,VWS V14.01,2013-05-08 18:11:00,
2013-05-08 11:16:00,57.6,45.9,30.03,NE,45,3.1,6.7,65,0.00,,,0.00,VWS V14.01,2013-05-08 18:16:00,
2013-05-08 11:21:00,57.4,45.7,30.03,East,90,0.0,3.1,65,0.00,,,0.00,VWS V14.01,2013-05-08 18:21:00,
2013-05-08 11:26:00,57.4,45.7,30.03,North,0,0.0,0.0,65,0.00,,,0.00,VWS V14.01,2013-05-08 18:26:00,
2013-05-08 11:32:00,57.4,45.7,30.03,NE,45,2.7,2.7,65,0.00,,,0.00,VWS V14.01,2013-05-08 18:32:00,
2013-05-08 11:37:00,57.2,45.6,30.03,ESE,112,2.2,2.7,65,0.00,,,0.00,VWS V14.01,2013-05-08 18:37:00,
2013-05-08 11:42:00,57.6,45.9,30.03,WSW,248,0.0,0.0,65,0.00,,,0.00,VWS V14.01,2013-05-08 18:42:00,
2013-05-08 11:47:00,57.9,45.4,30.03,WSW,248,3.1,5.4,63,0.00,,,0.00,VWS V14.01,2013-05-08 18:47:00,
2013-05-08 11:52:00,58.1,45.2,30.03,SSW,202,2.2,2.2,62,0.00,,,0.00,VWS V14.01,2013-05-08 18:52:00,
2013-05-08 11:57:00,58.6,44.8,30.06,SSW,202,3.6,3.6,60,0.00,,,0.00,VWS V14.01,2013-05-08 18:57:00,
2013-05-08 12:03:00,58.6,43.9,30.06,ESE,112,3.6,4.0,58,0.00,,,0.00,VWS V14.01,2013-05-08 19:03:00,
2013-05-08 12:08:00,58.6,43.9,30.06,WNW,292,2.7,2.7,58,0.00,,,0.00,VWS V14.01,2013-05-08 19:08:00,
2013-05-08 12:13:00,58.8,44.1,30.03,WSW,248,2.7,5.4,58,0.00,,,0.00,VWS V14.01,2013-05-08 19:13:00,
2013-05-08 12:18:00,58.8,44.1,30.03,South,180,3.6,5.8,58,0.00,,,0.00,VWS V14.01,2013-05-08 19:18:00,
2013-05-08 12:24:00,59.4,44.1,30.03,NNE,22,2.7,2.7,57,0.00,,,0.00,VWS V14.01,2013-05-08 19:24:00,
2013-05-08 12:29:00,59.5,43.8,30.03,ENE,68,2.7,3.1,56,0.00,,,0.00,VWS V14.01,2013-05-08 19:29:00,
2013-05-08 12:34:00,60.3,44.0,30.03,East,90,2.7,2.7,55,0.00,,,0.00,VWS V14.01,2013-05-08 19:34:00,
2013-05-08 12:39:00,60.1,43.4,30.03,SE,135,2.7,2.7,54,0.00,,,0.00,VWS V14.01,2013-05-08 19:39:00,
2013-05-08 12:44:00,59.9,43.2,30.03,SSE,158,0.0,0.0,54,0.00,,,0.00,VWS V14.01,2013-05-08 19:44:00,
2013-05-08 12:50:00,59.9,43.2,30.03,ENE,68,0.0,0.0,54,0.00,,,0.00,VWS V14.01,2013-05-08 19:50:00,
2013-05-08 12:55:00,60.3,43.1,30.03,ESE,112,2.7,4.0,53,0.00,,,0.00,VWS V14.01,2013-05-08 19:55:00,
2013-05-08 13:00:00,60.4,43.2,30.03,SSE,158,4.0,5.4,53,0.00,,,0.00,VWS V14.01,2013-05-08 20:00:00,
2013-05-08 13:05:00,60.1,42.9,30.03,NNE,22,2.2,3.6,53,0.00,,,0.00,VWS V14.01,2013-05-08 20:05:00,
2013-05-08 13:10:00,59.9,42.7,30.03,South,180,0.0,0.0,53,0.00,,,0.00,VWS V14.01,2013-05-08 20:10:00,
2013-05-08 13:15:00,60.1,42.9,30.03,ESE,112,0.0,2.7,53,0.00,,,0.00,VWS V14.01,2013-05-08 20:15:00,
2013-05-08 13:21:00,60.4,42.8,30.03,SSW,202,4.0,4.9,52,0.00,,,0.00,VWS V14.01,2013-05-08 20:21:00,
2013-05-08 13:26:00,60.3,42.1,30.03,ESE,112,0.0,4.9,51,0.00,,,0.00,VWS V14.01,2013-05-08 20:26:00,
2013-05-08 13:31:00,60.4,42.2,30.03,SSE,158,3.1,4.0,51,0.00,,,0.00,VWS V14.01,2013-05-08 20:31:00,
2013-05-08 13:36:00,60.4,42.2,30.03,SSW,202,3.1,4.0,51,0.00,,,0.00,VWS V14.01,2013-05-08 20:36:00,
2013-05-08 13:41:00,61.2,42.4,30.03,SW,225,4.0,4.0,50,0.00,,,0.00,VWS V14.01,2013-05-08 20:41:00,
2013-05-08 13:46:00,61.0,41.7,30.03,ENE,68,3.1,4.9,49,0.00,,,0.00,VWS V14.01,2013-05-08 20:46:00,
2013-05-08 13:52:00,61.0,42.2,30.03,WSW,248,5.4,5.4,50,0.00,,,0.00,VWS V14.01,2013-05-08 20:52:00,
2013-05-08 13:57:00,61.5,42.2,30.03,SSW,202,4.9,4.9,49,0.00,,,0.00,VWS V14.01,2013-05-08 20:57:00,
2013-05-08 14:02:00,62.2,42.3,30.03,SSE,158,5.8,5.8,48,0.00,,,0.00,VWS V14.01,2013-05-08 21:02:00,
2013-05-08 14:07:00,62.1,42.2,30.03,SSW,202,3.1,7.2,48,0.00,,,0.00,VWS V14.01,2013-05-08 21:07:00,
2013-05-08 14:12:00,63.0,42.4,30.03,WSW,248,4.0,4.0,47,0.00,,,0.00,VWS V14.01,2013-05-08 21:12:00,
2013-05-08 14:17:00,63.9,42.7,30.03,SSE,158,2.7,4.0,46,0.00,,,0.00,VWS V14.01,2013-05-08 21:17:00,
2013-05-08 14:22:00,64.6,42.8,30.03,SSW,202,3.6,5.8,45,0.00,,,0.00,VWS V14.01,2013-05-08 21:22:00,
2013-05-08 14:28:00,65.1,42.7,30.03,WSW,248,4.0,4.9,44,0.00,,,0.00,VWS V14.01,2013-05-08 21:28:00,
2013-05-08 14:33:00,64.6,42.2,30.03,SSW,202,4.9,4.9,44,0.00,,,0.00,VWS V14.01,2013-05-08 21:33:00,
2013-05-08 14:38:00,63.0,41.9,30.03,SSW,202,5.8,5.8,46,0.00,,,0.00,VWS V14.01,2013-05-08 21:38:00,
2013-05-08 14:43:00,63.3,42.2,30.03,SSW,202,6.3,6.3,46,0.00,,,0.00,VWS V14.01,2013-05-08 21:43:00,
2013-05-08 14:48:00,61.5,41.7,30.03,South,180,3.6,5.4,48,0.00,,,0.00,VWS V14.01,2013-05-08 21:48:00,
2013-05-08 14:53:00,61.3,41.5,30.03,WSW,248,4.0,4.0,48,0.00,,,0.00,VWS V14.01,2013-05-08 21:53:00,
2013-05-08 14:58:00,60.6,41.9,30.03,SSW,202,3.6,3.6,50,0.00,,,0.00,VWS V14.01,2013-05-08 21:58:00,
2013-05-08 15:03:00,61.2,42.4,30.03,SW,225,3.6,4.9,50,0.00,,,0.00,VWS V14.01,2013-05-08 22:03:00,
2013-05-08 15:08:00,60.8,42.1,30.03,SSW,202,2.7,6.7,50,0.00,,,0.00,VWS V14.01,2013-05-08 22:08:00,
2013-05-08 15:14:00,60.4,42.2,30.03,South,180,2.7,2.7,51,0.00,,,0.00,VWS V14.01,2013-05-08 22:14:00,
2013-05-08 15:19:00,60.1,42.4,30.03,SSW,202,4.0,4.0,52,0.00,,,0.00,VWS V14.01,2013-05-08 22:19:00,
2013-05-08 15:24:00,59.7,42.6,30.03,SSW,202,7.6,8.1,53,0.00,,,0.00,VWS V14.01,2013-05-08 22:24:00,
2013-05-08 15:29:00,60.3,43.1,30.03,East,90,3.6,4.9,53,0.00,,,0.00,VWS V14.01,2013-05-08 22:29:00,
2013-05-08 15:34:00,61.7,42.9,30.03,WSW,248,3.1,5.8,50,0.00,,,0.00,VWS V14.01,2013-05-08 22:34:00,
2013-05-08 15:39:00,62.1,42.2,30.03,South,180,4.0,4.0,48,0.00,,,0.00,VWS V14.01,2013-05-08 22:39:00,
2013-05-08 15:44:00,62.8,42.3,30.03,East,90,2.7,3.6,47,0.00,,,0.00,VWS V14.01,2013-05-08 22:44:00,
2013-05-08 15:49:00,63.0,42.4,30.03,SSW,202,5.4,8.1,47,0.00,,,0.00,VWS V14.01,2013-05-08 22:49:00,
2013-05-08 15:55:00,62.6,42.1,30.03,SSW,202,3.1,5.4,47,0.00,,,0.00,VWS V14.01,2013-05-08 22:55:00,
2013-05-08 16:00:00,62.6,42.1,30.03,SSW,202,7.6,8.1,47,0.00,,,0.00,VWS V14.01,2013-05-08 23:00:00,
2013-05-08 16:05:00,61.5,42.2,30.03,West,270,5.4,7.2,49,0.00,,,0.00,VWS V14.01,2013-05-08 23:05:00,
2013-05-08 16:10:00,61.7,42.4,30.03,NW,315,3.1,4.0,49,0.00,,,0.00,VWS V14.01,2013-05-08 23:10:00,
2013-05-08 16:15:00,62.2,42.3,30.03,SSW,202,3.6,8.3,48,0.00,,,0.00,VWS V14.01,2013-05-08 23:15:00,
2013-05-08 16:20:00,62.2,42.3,30.03,ESE,112,3.6,3.6,48,0.00,,,0.00,VWS V14.01,2013-05-08 23:20:00,
2013-05-08 16:25:00,63.1,42.6,30.03,WNW,292,2.7,2.7,47,0.00,,,0.00,VWS V14.01,2013-05-08 23:25:00,
2013-05-08 16:30:00,63.3,42.8,30.03,East,90,4.0,4.0,47,0.00,,,0.00,VWS V14.01,2013-05-08 23:30:00,
2013-05-08 16:35:00,63.9,42.7,30.03,WSW,248,2.7,5.8,46,0.00,,,0.00,VWS V14.01,2013-05-08 23:35:00,
2013-05-08 16:40:00,63.9,42.7,30.03,SSW,202,4.9,6.3,46,0.00,,,0.00,VWS V14.01,2013-05-08 23:40:00,
2013-05-08 16:45:00,62.2,41.8,30.03,NE,45,3.6,3.6,47,0.00,,,0.00,VWS V14.01,2013-05-08 23:45:00,
2013-05-08 16:51:00,61.9,42.0,30.03,SSW,202,5.4,7.6,48,0.00,,,0.00,VWS V14.01,2013-05-08 23:51:00,
2013-05-08 16:56:00,61.3,41.5,30.03,South,180,2.7,8.3,48,0.00,,,0.00,VWS V14.01,2013-05-08 23:56:00,
2013-05-08 17:01:00,60.8,42.1,30.03,WSW,248,3.1,3.1,50,0.00,,,0.00,VWS V14.01,2013-05-09 00:01:00,
2013-05-08 17:06:00,60.3,42.1,30.03,North,0,4.0,4.5,51,0.00,,,0.00,VWS V14.01,2013-05-09 00:06:00,
2013-05-08 17:12:00,59.5,42.4,30.00,SSW,202,4.9,4.9,53,0.00,,,0.00,VWS V14.01,2013-05-09 00:12:00,
2013-05-08 17:17:00,59.4,42.7,30.00,ENE,68,0.0,3.1,54,0.00,,,0.00,VWS V14.01,2013-05-09 00:17:00,
2013-05-08 17:22:00,59.4,42.7,30.00,South,180,2.7,4.0,54,0.00,,,0.00,VWS V14.01,2013-05-09 00:22:00,
2013-05-08 17:27:00,58.8,42.7,30.03,SSW,202,5.4,5.8,55,0.00,,,0.00,VWS V14.01,2013-05-09 00:27:00,
2013-05-08 17:32:00,57.9,42.3,30.03,SSE,158,3.1,4.9,56,0.00,,,0.00,VWS V14.01,2013-05-09 00:32:00,
2013-05-08 17:37:00,57.7,42.6,30.03,SW,225,4.9,7.6,57,0.00,,,0.00,VWS V14.01,2013-05-09 00:37:00,
2013-05-08 17:42:00,57.6,42.9,30.03,South,180,2.7,3.1,58,0.00,,,0.00,VWS V14.01,2013-05-09 00:42:00,
2013-05-08 17:47:00,57.6,42.9,30.03,ESE,112,3.6,3.6,58,0.00,,,0.00,VWS V14.01,2013-05-09 00:47:00,
2013-05-08 17:52:00,57.6,42.9,30.03,South,180,4.0,4.0,58,0.00,,,0.00,VWS V14.01,2013-05-09 00:52:00,
2013-05-08 17:58:00,57.6,42.9,30.00,South,180,3.6,5.4,58,0.00,,,0.00,VWS V14.01,2013-05-09 00:58:00,
2013-05-08 18:03:00,57.6,42.9,30.00,ENE,68,2.7,3.1,58,0.00,,,0.00,VWS V14.01,2013-05-09 01:03:00,
2013-05-08 18:08:00,57.6,42.9,30.00,South,180,3.6,3.6,58,0.00,,,0.00,VWS V14.01,2013-05-09 01:08:00,
2013-05-08 18:13:00,57.2,42.6,30.03,East,90,3.1,4.0,58,0.00,,,0.00,VWS V14.01,2013-05-09 01:13:00,
2013-05-08 18:18:00,57.0,43.3,30.03,NNW,338,3.1,4.0,60,0.00,,,0.00,VWS V14.01,2013-05-09 01:18:00,
2013-05-08 18:23:00,56.8,43.5,30.03,ENE,68,3.6,7.6,61,0.00,,,0.00,VWS V14.01,2013-05-09 01:23:00,
2013-05-08 18:28:00,56.8,43.5,30.00,SW,225,3.1,5.4,61,0.00,,,0.00,VWS V14.01,2013-05-09 01:28:00,
2013-05-08 18:34:00,56.8,44.0,30.00,SSW,202,4.0,4.9,62,0.00,,,0.00,VWS V14.01,2013-05-09 01:34:00,
2013-05-08 18:39:00,56.7,43.8,30.00,South,180,6.3,7.2,62,0.00,,,0.00,VWS V14.01,2013-05-09 01:39:00,
2013-05-08 18:44:00,56.3,43.5,30.00,NW,315,2.7,5.4,62,0.00,,,0.00,VWS V14.01,2013-05-09 01:44:00,
2013-05-08 18:49:00,56.1,43.3,30.00,SSE,158,7.6,11.0,62,0.00,,,0.00,VWS V14.01,2013-05-09 01:49:00,
2013-05-08 18:54:00,55.8,43.4,30.00,ENE,68,3.1,3.1,63,0.00,,,0.00,VWS V14.01,2013-05-09 01:54:00,
2013-05-08 18:59:00,55.9,43.5,30.00,NNE,22,2.7,3.6,63,0.00,,,0.00,VWS V14.01,2013-05-09 01:59:00,
2013-05-08 19:04:00,55.9,44.0,30.00,NNE,22,4.9,4.9,64,0.00,,,0.00,VWS V14.01,2013-05-09 02:04:00,
2013-05-08 19:10:00,55.9,44.0,30.00,SSE,158,2.7,2.7,64,0.00,,,0.00,VWS V14.01,2013-05-09 02:10:00,
2013-05-08 19:15:00,55.8,43.8,30.00,SSE,158,3.1,3.6,64,0.00,,,0.00,VWS V14.01,2013-05-09 02:15:00,
2013-05-08 19:20:00,55.6,43.6,30.00,NE,45,0.0,3.6,64,0.00,,,0.00,VWS V14.01,2013-05-09 02:20:00,
2013-05-08 19:25:00,55.6,44.0,30.03,ENE,68,2.2,4.0,65,0.00,,,0.00,VWS V14.01,2013-05-09 02:25:00,
2013-05-08 19:30:00,55.4,43.8,30.03,ESE,112,2.7,5.4,65,0.00,,,0.00,VWS V14.01,2013-05-09 02:30:00,
2013-05-08 19:35:00,55.4,43.8,30.03,SW,225,2.7,4.0,65,0.00,,,0.00,VWS V14.01,2013-05-09 02:35:00,
2013-05-08 19:41:00,55.2,44.1,30.00,SW,225,3.1,3.1,66,0.00,,,0.00,VWS V14.01,2013-05-09 02:41:00,
2013-05-08 19:46:00,55.0,43.9,30.00,NNE,22,0.0,4.0,66,0.00,,,0.00,VWS V14.01,2013-05-09 02:46:00,
2013-05-08 19:51:00,55.0,43.9,30.00,SSW,202,2.7,4.0,66,0.00,,,0.00,VWS V14.01,2013-05-09 02:51:00,
2013-05-08 19:56:00,55.0,43.9,30.00,North,0,4.0,4.0,66,0.00,,,0.00,VWS V14.01,2013-05-09 02:56:00,
2013-05-08 20:01:00,54.9,44.1,30.00,SSE,158,4.9,7.6,67,0.00,,,0.00,VWS V14.01,2013-05-09 03:01:00,
2013-05-08 20:07:00,54.9,44.1,30.00,NW,315,5.4,10.5,67,0.00,,,0.00,VWS V14.01,2013-05-09 03:07:00,
2013-05-08 20:12:00,54.9,44.5,30.00,NNE,22,2.7,3.6,68,0.00,,,0.00,VWS V14.01,2013-05-09 03:12:00,
2013-05-08 20:17:00,54.9,44.5,30.00,ESE,112,2.7,5.8,68,0.00,,,0.00,VWS V14.01,2013-05-09 03:17:00,
2013-05-08 20:22:00,54.5,44.2,30.00,South,180,4.9,4.9,68,0.00,,,0.00,VWS V14.01,2013-05-09 03:22:00,
2013-05-08 20:27:00,54.5,44.2,30.00,SSW,202,4.0,5.8,68,0.00,,,0.00,VWS V14.01,2013-05-09 03:27:00,
2013-05-08 20:32:00,54.5,43.8,30.00,ENE,68,3.6,3.6,67,0.00,,,0.00,VWS V14.01,2013-05-09 03:32:00,
2013-05-08 20:38:00,54.5,43.8,30.00,North,0,2.7,2.7,67,0.00,,,0.00,VWS V14.01,2013-05-09 03:38:00,
2013-05-08 20:43:00,54.5,43.8,30.03,SSE,158,0.0,4.0,67,0.00,,,0.00,VWS V14.01,2013-05-09 03:43:00,
2013-05-08 20:48:00,54.5,43.8,30.03,NE,45,3.1,5.4,67,0.00,,,0.00,VWS V14.01,2013-05-09 03:48:00,
2013-05-08 20:53:00,54.5,43.8,30.03,SW,225,5.8,5.8,67,0.00,,,0.00,VWS V14.01,2013-05-09 03:53:00,
2013-05-08 20:58:00,54.5,43.8,30.03,North,0,2.7,3.1,67,0.00,,,0.00,VWS V14.01,2013-05-09 03:58:00,
2013-05-08 21:01:00,54.5,43.8,30.03,ESE,112,3.1,4.0,67,0.00,,,0.00,VWS V14.01,2013-05-09 04:01:00,
2013-05-08 21:02:00,54.5,43.8,30.03,North,0,2.2,7.2,67,0.00,,,0.00,VWS V14.01,2013-05-09 04:02:00,
2013-05-08 21:07:00,54.5,44.2,30.03,ESE,112,3.6,3.6,68,0.00,,,0.00,VWS V14.01,2013-05-09 04:07:00,
2013-05-08 21:09:00,54.5,44.2,30.03,SSE,158,0.0,3.1,68,0.00,,,0.00,VWS V14.01,2013-05-09 04:09:00,
2013-05-08 21:14:00,54.7,44.3,30.03,East,90,2.7,2.7,68,0.00,,,0.00,VWS V14.01,2013-05-09 04:14:00,
2013-05-08 21:19:00,54.7,44.0,30.03,NNW,338,0.0,4.0,67,0.00,,,0.00,VWS V14.01,2013-05-09 04:19:00,
2013-05-08 21:25:00,54.7,44.0,30.03,ESE,112,0.0,4.0,67,0.00,,,0.00,VWS V14.01,2013-05-09 04:25:00,
2013-05-08 21:30:00,54.7,44.0,30.03,SE,135,2.7,2.7,67,0.00,,,0.00,VWS V14.01,2013-05-09 04:30:00,
2013-05-08 21:35:00,54.5,43.8,30.03,SW,225,3.1,3.1,67,0.00,,,0.00,VWS V14.01,2013-05-09 04:35:00,
2013-05-08 21:41:00,54.5,43.8,30.03,SE,135,0.0,2.7,67,0.00,,,0.00,VWS V14.01,2013-05-09 04:41:00,
2013-05-08 21:46:00,54.5,43.8,30.03,SW,225,3.6,5.8,67,0.00,,,0.00,VWS V14.01,2013-05-09 04:46:00,
2013-05-08 21:51:00,54.5,43.8,30.03,ENE,68,0.0,0.0,67,0.00,,,0.00,VWS V14.01,2013-05-09 04:51:00,
2013-05-08 21:56:00,54.5,43.4,30.03,SSE,158,3.1,4.0,66,0.00,,,0.00,VWS V14.01,2013-05-09 04:56:00,
2013-05-08 22:02:00,54.5,43.8,30.03,South,180,4.9,4.9,67,0.00,,,0.00,VWS V14.01,2013-05-09 05:02:00,
2013-05-08 22:07:00,54.5,43.8,30.03,ENE,68,0.0,4.0,67,0.00,,,0.00,VWS V14.01,2013-05-09 05:07:00,
2013-05-08 22:12:00,54.5,43.8,30.03,South,180,3.6,4.0,67,0.00,,,0.00,VWS V14.01,2013-05-09 05:12:00,
2013-05-08 22:17:00,54.5,43.8,30.03,NNE,22,2.2,3.1,67,0.00,,,0.00,VWS V14.01,2013-05-09 05:17:00,
2013-05-08 22:22:00,54.5,44.2,30.03,ENE,68,2.2,2.2,68,0.00,,,0.00,VWS V14.01,2013-05-09 05:22:00,
2013-05-08 22:27:00,54.3,44.0,30.03,ESE,112,2.7,2.7,68,0.00,,,0.00,VWS V14.01,2013-05-09 05:27:00,
2013-05-08 22:32:00,54.3,44.0,30.03,WSW,248,2.2,3.1,68,0.00,,,0.00,VWS V14.01,2013-05-09 05:32:00,
2013-05-08 22:38:00,54.3,44.0,30.03,WSW,248,3.1,3.6,68,0.00,,,0.00,VWS V14.01,2013-05-09 05:38:00,
2013-05-08 22:43:00,54.3,44.4,30.03,SE,135,0.0,3.1,69,0.00,,,0.00,VWS V14.01,2013-05-09 05:43:00,
2013-05-08 22:48:00,54.3,44.0,30.03,SSW,202,3.6,5.4,68,0.00,,,0.00,VWS V14.01,2013-05-09 05:48:00,
2013-05-08 22:53:00,54.3,44.0,30.03,WSW,248,3.6,5.8,68,0.00,,,0.00,VWS V14.01,2013-05-09 05:53:00,
2013-05-08 22:58:00,54.3,44.0,30.03,SE,135,3.6,4.0,68,0.00,,,0.00,VWS V14.01,2013-05-09 05:58:00,
2013-05-08 23:04:00,54.3,44.0,30.03,SSW,202,4.0,4.0,68,0.00,,,0.00,VWS V14.01,2013-05-09 06:04:00,
2013-05-08 23:09:00,54.1,43.8,30.03,SW,225,4.0,5.8,68,0.00,,,0.00,VWS V14.01,2013-05-09 06:09:00,
2013-05-08 23:14:00,54.3,44.0,30.03,SSE,158,2.2,2.2,68,0.00,,,0.00,VWS V14.01,2013-05-09 06:14:00,
2013-05-08 23:19:00,54.1,43.8,30.03,SSE,158,2.7,3.1,68,0.00,,,0.00,VWS V14.01,2013-05-09 06:19:00,
2013-05-08 23:24:00,54.1,43.8,30.03,SW,225,3.6,5.4,68,0.00,,,0.00,VWS V14.01,2013-05-09 06:24:00,
2013-05-08 23:29:00,54.1,44.2,30.03,NE,45,0.0,3.6,69,0.00,,,0.00,VWS V14.01,2013-05-09 06:29:00,
2013-05-08 23:35:00,54.1,44.2,30.03,NE,45,3.1,3.1,69,0.00,,,0.00,VWS V14.01,2013-05-09 06:35:00,
2013-05-08 23:40:00,54.1,44.2,30.03,SSW,202,4.0,4.0,69,0.00,,,0.00,VWS V14.01,2013-05-09 06:40:00,
2013-05-08 23:45:00,54.1,44.2,30.03,SSE,158,0.0,2.7,69,0.00,,,0.00,VWS V14.01,2013-05-09 06:45:00,
2013-05-08 23:50:00,54.1,44.2,30.03,ESE,112,2.2,3.6,69,0.00,,,0.00,VWS V14.01,2013-05-09 06:50:00,
2013-05-08 23:55:00,54.0,44.0,30.03,ENE,68,2.7,3.1,69,0.00,,,0.00,VWS V14.01,2013-05-09 06:55:00,